Tracking 19795 objects as of 20-Jul-2019
HD Live streaming from Space Station
objects crossing your sky now

COSMOS 1275 DEB

Track COSMOS 1275 DEB now!
10-day predictions


NORAD ID: 17638
Int'l Code: 1981-053LL
Perigee: 923.2 km
Apogee: 1,108.1 km
Inclination: 83.0 °
Period: 105.3 minutes
Semi major axis: 7386 km
RCS: 0.0172 m2 (small)
Launch date: June 4, 1981
Source: Commonwealth of Independent States (former USSR) (CIS)
Launch site: PLESETSK MISSILE AND SPACE COMPLEX (PKMTR)

Note: This is SATELLITE DEBRIS
aabbcc
Your satellite tracking list
Your tracking list is empty




NASA's NSSDC Master Catalog

Two Line Element Set (TLE):
1 17638U 81053LH  19200.83969194  .00000307  00000-0  32780-3 0  9996
2 17638  82.9949 329.0811 0125222  15.8086 139.5546 13.67513703699692
Source of the keplerian elements: AFSPC